Weather observations for the past three days for
Hill Air Force Base
Imperial (Metric)
Date Time (mdt) Wind (mph) Vis. (mi.) Weather Sky Cond. Temperature (ºF) Relative Humidity Wind Chill (°F) Heat Index (°F) Pressure Precipitation (in)
Air Dwpt 6 hour altimeter (in) sea level (mb) 1 hr 3 hr 6 hr
Max. Min.
15 13:55 W 8 10.00 Fair CLR 87.8 43 21% 84 30.15 1013.2
15 12:55 W 5 10.00 Fair CLR 85.5 44.6 24% 83 30.16 1013.6
15 11:55 NW 6 10.00 Fair CLR 84.2 47.5 84.4 72 28% 82 30.18 1014.3
15 10:55 W 7 10.00 Fair CLR 83.1 46.6 28% 81 30.19 1014.3
15 09:55 SW 5 10.00 Fair CLR 81.1 50 34% 80 30.18 1014.3
15 08:55 E 7 10.00 Fair CLR 78.8 50.4 37% 79 30.18 1013.6
15 07:55 E 12 10.00 A Few Clouds FEW190 74.1 46.9 38% 30.17 1013.6
15 06:55 E 8 10.00 A Few Clouds FEW210 72.3 46.6 40% 30.16 1013.2
15 05:55 E 9 10.00 Fair CLR 73.2 45.3 81.3 72.9 37% 30.14 1012.6
15 04:55 SE 6 10.00 Partly Cloudy SCT120 72.9 47.1 40% 30.14 1012.6
15 02:55 S 14 10.00 A Few Clouds FEW170 76.1 48.6 38% 78 30.13 1011.9
15 01:55 NW 8 10.00 Fair CLR 78.3 45.1 31% 78 30.12 1011.5
15 00:55 N 9 10.00 Fair CLR 80.2 45.1 29% 79 30.12 1011.5
14 23:55 N 16 G 28 10.00 A Few Clouds FEW140 81.7 47.1 96.1 81.7 30% 80 30.12 1011.5
14 22:55 NW 10 10.00 Mostly Cloudy BKN150 85.6 42.4 22% 83 30.06 1009.3
14 21:55 E 9 10.00 Mostly Cloudy BKN160 85.8 38.8 19% 83 30.04 1008.8
14 20:55 N 3 10.00 Fair CLR 91.6 35.6 14% 87 30.04 1008.6
14 19:55 NW 5 10.00 Fair CLR 95 34.3 12% 90 30.03 1008.3
14 18:55 N 6 10.00 Fair CLR 95.4 36.7 13% 91 30.04 1008.8
14 17:55 W 5 10.00 Fair CLR 95.7 34.9 97.2 90 12% 91 30.05 1009.1
14 16:55 W 7 10.00 Fair CLR 96.4 35.4 12% 92 30.08 1010.0
14 15:55 NW 8 G 17 10.00 Fair CLR 95.5 36.9 13% 91 30.11 1011.0
14 14:55 W 8 10.00 Fair CLR 93.7 40.6 16% 89 30.13 1011.7
14 13:55 SW 12 10.00 Fair CLR 94.3 41.2 16% 90 30.14 1011.9
14 12:55 SW 7 10.00 Fair CLR 92.3 41.2 17% 88 30.16 1012.6
14 11:55 W 3 10.00 Fair CLR 90.3 42.4 90.7 76.5 19% 87 30.18 1013.5
14 10:55 SW 7 10.00 Fair CLR 89.4 43 20% 86 30.18 1013.5
14 09:55 S 8 10.00 A Few Clouds FEW180 85.1 46.4 26% 83 30.19 1013.8
14 08:55 S 8 10.00 A Few Clouds FEW170 84.7 43.9 24% 82 30.19 1014.0
14 07:55 SE 9 10.00 Overcast BKN150 BKN170 OVC190 79 43.2 28% 78 30.17 1013.3
14 06:55 SE 8 10.00 Mostly Cloudy FEW160 BKN190 77.5 42.8 29% 78 30.16 1012.9
14 05:55 E 13 10.00 Overcast OVC200 78.6 42.8 87.4 78.1 28% 78 30.16 1012.8
14 04:55 SE 8 10.00 Fair CLR 79.2 42.3 27% 79 30.13 1011.7
14 03:55 E 3 10.00 Mostly Cloudy BKN150 78.6 44.6 30% 78 30.14 1012.1
14 02:55 N 5 10.00 Partly Cloudy SCT170 82.8 44.4 26% 81 30.16 1012.8
14 01:55 Calm 10.00 Mostly Cloudy SCT170 BKN220 84.9 45.1 25% 82 30.18 1013.3
14 00:55 SW 9 10.00 Partly Cloudy FEW150 SCT180 86.4 40.5 20% 83 30.18 1013.2
13 23:55 SE 6 10.00 Overcast BKN140 OVC170 85.8 37.4 98.1 85.8 18% 83 30.15 1012.4
13 22:55 SW 5 10.00 Mostly Cloudy BKN150 BKN170 86.9 36.9 17% 83 30.14 1012.2
13 21:55 SE 12 10.00 Mostly Cloudy FEW120 BKN150 88.7 35.1 15% 85 30.11 1011.2
13 20:55 SE 8 10.00 Partly Cloudy SCT150 SCT180 89.4 37.2 16% 86 30.09 1011.1
13 19:55 Calm 10.00 Partly Cloudy SCT170 93.6 31.1 11% 89 30.09 1010.8
13 18:55 N 3 10.00 Fair CLR 96.6 28.6 9% 92 30.08 1010.5
13 17:55 NW 3 10.00 Mostly Cloudy BKN200 97.2 28.9 99.1 88.9 9% 92 30.08 1010.5
13 16:55 N 8 10.00 Partly Cloudy SCT180 97.9 26.6 8% 93 30.1 1010.8
13 15:55 NE 9 10.00 Mostly Cloudy FEW150 BKN180 96.6 28.6 9% 92 30.11 1011.2
13 14:55 N 3 10.00 Mostly Cloudy SCT150 BKN220 93.9 31.5 11% 89 30.16 1012.9
13 13:55 NW 10 10.00 Mostly Cloudy SCT150 BKN180 93.7 37.2 14% 89 30.16 1012.9
13 12:55 W 9 10.00 Mostly Cloudy BKN160 95.5 24.8 8% 91 30.16 1012.8
13 11:55 SE 13 10.00 Mostly Cloudy SCT150 BKN170 89.4 38.8 89.4 71.2 17% 86 30.15 1012.6
13 10:55 E 14 10.00 Mostly Cloudy SCT150 BKN170 BKN200 82.8 38.8 21% 80 30.14 1012.6
13 09:55 E 15 10.00 A Few Clouds FEW220 82.2 39.6 22% 80 30.15 1012.9
13 08:55 E 20 10.00 Fair CLR 74.8 38.7 27% 30.15 1012.9
13 07:55 E 18 10.00 Fair CLR 73.6 36.5 26% 30.13 1011.9
13 06:55 E 20 10.00 Partly Cloudy SCT180 71.6 35.8 27% 30.11 1011.2
13 05:55 E 20 10.00 Partly Cloudy FEW170 SCT190 72.7 34.9 82 72.3 25% 30.1 1010.8
13 04:55 E 16 10.00 Fair CLR 75 34.7 23% 76 30.1 1010.7
13 03:55 SE 18 10.00 Fair CLR 74.3 35.2 24% 30.09 1010.3
13 02:55 E 17 G 23 10.00 Mostly Cloudy BKN180 77.7 34.7 21% 77 30.09 1010.2
13 01:55 SE 16 G 24 10.00 Overcast OVC170 78.3 33.8 20% 78 30.08 1009.8
13 00:55 E 14 10.00 Fair CLR 81.3 33.8 18% 79 30.09 1010.3
12 23:55 E 16 10.00 Fair CLR 81.3 36.3 100 81.3 20% 79 30.08 1010.1
12 22:55 SE 12 10.00 Fair CLR 84.4 33.3 16% 81 30.08 1010.5
12 21:55 E 8 10.00 Fair CLR 86.4 27.7 12% 83 30.07 1010.5
12 20:55 NW 5 10.00 A Few Clouds FEW200 91.6 33.8 13% 87 30.06 1010.1
12 19:55 W 3 10.00 Fair CLR 97 14.9 5% 92 30.05 1009.4
12 18:55 W 8 10.00 Fair CLR 99.5 16.7 5% 94 30.05 1009.4
12 17:55 N 6 10.00 Fair CLR 99.7 16.7 100.8 91.6 5% 94 30.05 1009.1
12 16:55 NE 7 10.00 Fair CLR 99.9 21.2 6% 94 30.06 1009.4
12 15:55 N 7 G 16 10.00 Fair CLR 99 16.2 5% 93 30.08 1010.1
12 14:55 N 9 10.00 Fair CLR 100.8 17.4 5% 95 30.09 1010.3
Date Time (mdt) Wind (mph) Vis. (mi.) Weather Sky Cond. Air Dwpt Max. Min. Relative Humidity Wind Chill (°F) Heat Index (°F) altimeter (in) sea level (mb) 1 hr 3 hr 6 hr
6 hour
Temperature (ºF) Pressure Precipitation (in)